Temperature
7 8 8 8 9 10 10 10 10 11 11 11 11 11 11 10 10 11 10 10 10 10 10 10 11 11 11 12 12 12 12 12 12 12 12 12 13 13 12 12 12 12 12 12
8 7 7 8 8 9 10 10 10 10 10 11 11 11 11 10 10 10 10 10 9 9 10 10 10 11 11 11 11 11 11 11 11 12 12 12 12 12 12 12 12 12 12 12
7 7 7 8 8 8 9 10 10 9 9 10 10 11 11 11 10 9 9 9 9 9 9 9 10 10 11 11 11 11 11 11 11 11 11 11 11 11 11 11 11 11 11 12
7 7 7 7 8 8 9 9 9 9 9 10 10 11 11 11 10 10 9 9 9 8 8 9 9 10 10 10 11 11 11 11 11 11 11 11 11 11 11 11 11 11 11 11
6 6 6 7 7 7 8 9 9 9 9 9 10 10 11 10 10 11 10 9 8 8 8 8 9 9 10 10 10 10 10 10 10 10 10 10 10 10 11 11 11 11 11 11
6 6 6 6 7 7 8 8 9 9 9 9 10 10 11 11 11 11 10 9 8 8 8 8 8 9 9 9 10 10 10 10 10 10 10 10 10 10 10 10 10 10 10 10
6 6 6 6 7 7 8 8 8 8 8 9 9 9 11 10 10 10 9 8 7 7 7 7 8 8 8 9 9 9 9 9 9 9 9 9 9 9 9 10 9 10 10 10
6 6 5 6 6 6 7 8 8 9 9 9 8 9 10 9 8 8 7 7 7 6 6 7 7 7 8 8 8 9 9 9 9 9 9 9 9 9 9 9 9 9 9 9
6 6 5 5 5 6 6 7 7 7 8 8 9 9 9 8 8 8 7 7 6 5 6 6 6 7 7 7 8 8 8 8 8 9 9 9 9 9 9 9 8 9 9 9
4 4 5 5 6 6 6 6 7 7 8 9 9 9 10 9 8 8 7 7 6 5 5 5 6 6 7 7 7 7 7 8 8 8 8 8 8 8 8 8 8 8 8 8
4 4 5 5 4 5 5 5 6 7 7 9 9 10 9 9 8 7 7 6 5 4 4 5 5 6 6 6 7 7 7 7 7 7 7 7 8 8 8 8 8 8 8 7
3 4 4 4 4 4 4 5 5 7 6 7 9 9 7 7 7 6 6 5 4 4 4 4 4 5 5 6 6 6 6 6 6 6 7 7 7 7 7 7 7 7 7 7
3 3 5 5 4 4 4 4 4 5 6 7 8 9 6 6 5 5 5 4 3 3 3 3 4 4 4 5 5 5 5 5 6 6 6 6 6 6 6 6 6 6 6 6
3 2 4 6 5 4 4 3 4 4 6 6 7 8 7 6 6 5 4 3 3 3 3 3 3 3 4 4 4 4 5 5 5 5 5 5 5 5 5 5 5 5 5 5
2 2 1 2 3 3 3 3 3 3 5 6 7 6 7 7 6 4 4 3 3 2 2 3 3 3 3 3 4 4 4 4 4 4 4 4 4 4 5 5 5 4 4 4
1 1 1 2 2 2 2 3 3 3 4 4 5 5 6 5 4 4 3 3 2 2 2 2 2 2 3 3 3 3 3 3 3 3 4 4 4 4 4 4 4 4 4 4
0 0 2 4 2 2 4 4 3 3 3 4 5 6 4 4 3 3 3 2 2 2 2 2 2 2 2 2 2 3 3 3 3 3 3 3 3 3 3 3 3 3 3 3
-1 -0 1 2 2 3 5 2 3 3 3 3 3 4 3 3 2 2 2 2 2 2 2 2 2 2 2 2 2 2 2 2 2 2 2 2 2 3 3 3 2 2 2 2
-0 0 1 2 3 4 4 2 1 2 3 2 2 2 2 1 1 2 2 2 1 1 1 1 1 1 1 1 1 2 2 2 2 2 2 2 2 2 2 2 2 2 2 2
-1 -1 1 1 2 4 5 1 -0 2 3 2 1 1 1 1 3 4 2 1 1 1 1 1 1 1 1 1 1 1 1 1 1 1 1 1 1 1 1 1 1 1 1 1
-1 -1 -0 1 2 3 3 -0 0 3 4 2 1 1 0 1 2 1 1 1 1 1 1 1 1 1 0 0 1 1 1 1 1 1 1 1 0 0 0 0 0 0 0 0
0 0 -1 0 1 3 1 -0 1 3 1 1 0 0 -0 -0 -0 -0 0 0 0 0 0 0 0 0 0 -0 0 0 0 0 0 0 0 0 -0 -0 -0 -0 -0 -0 -0 -0
-0 0 1 1 2 1 -1 -0 -0 -0 -0 -0 -0 -1 -1 -1 -1 -1 -1 -1 -0 -0 -0 -0 -0 -0 -0 -0 -0 0 0 -0 -0 -0 -0 -0 -1 -1 -1 -1 -1 -1 -1 -1
-1 -2 -1 -1 -0 -1 -2 -2 -1 -1 -1 -1 -1 -1 -1 -1 -1 -1 -1 -1 -1 -1 -1 -1 -1 -1 -1 -1 -1 -1 -1 -1 -1 -1 -1 -1 -1 -1 -1 -2 -2 -2 -2 -2
-0 -2 -2 -1 -0 -1 -1 -1 -1 -1 -1 -1 -1 -1 -1 -2 -2 -2 -2 -2 -2 -2 -2 -1 -1 -1 -1 -1 -1 -1 -1 -1 -1 -1 -1 -2 -2 -2 -2 -2 -2 -2 -2 -2
-2 -2 -1 1 0 -0 -0 -0 -1 -1 -1 -1 -1 -2 -2 -2 -2 -2 -2 -2 -2 -2 -2 -2 -2 -2 -2 -2 -2 -2 -2 -2 -2 -2 -2 -2 -2 -2 -3 -3 -3 -3 -3 -3
Wind_Speed
2 3 5 6 7 7 8 9 9 6 4 6 9 8 5 3 3 4 4 3 2 2 1 1 2 2 3 3 4 4 4 4 4 4 4 4 4 4 4 4 5 6 6 7
3 3 5 6 6 5 7 8 6 4 3 5 7 7 5 4 4 4 4 4 3 2 1 0 1 2 2 3 3 3 4 4 4 4 4 4 4 3 3 3 4 5 6 6
4 1 3 5 5 5 6 8 7 4 2 5 4 5 7 6 4 3 3 3 3 3 2 1 1 1 1 2 2 3 3 3 3 3 3 3 2 2 3 4 4 5 5 5
1 1 2 5 4 4 5 6 6 7 5 4 6 5 7 7 6 4 4 3 3 3 2 2 1 2 2 2 2 3 3 4 3 3 4 5 5 5 5 4 4 4 5 5
1 1 1 4 4 4 3 3 5 6 5 3 5 5 5 6 7 7 5 4 3 2 2 2 2 3 3 2 2 2 3 3 3 4 4 5 5 5 4 4 4 4 4 5
1 1 1 2 3 3 2 3 3 3 3 4 6 7 5 6 8 7 5 3 2 2 2 2 2 2 2 2 1 2 3 3 3 4 4 5 5 4 4 5 5 4 3 3
2 1 2 1 1 2 2 4 2 3 4 4 4 6 5 3 4 5 5 4 2 2 2 2 2 2 2 2 2 2 3 3 3 4 5 5 5 5 5 5 4 4 3 3
0 1 1 1 1 2 4 4 2 3 4 2 3 6 3 0 2 3 3 2 1 1 2 3 3 2 2 2 3 3 3 3 3 3 4 5 5 4 4 4 4 4 3 3
0 1 0 0 1 2 2 3 1 1 1 2 4 4 4 2 2 2 2 2 2 2 2 3 4 3 3 2 2 3 4 3 3 3 3 3 4 4 4 4 4 3 3 2
1 1 1 1 0 2 0 2 1 2 2 3 4 6 4 4 5 4 4 4 3 3 3 3 3 3 3 3 3 2 3 4 3 3 3 2 3 3 3 4 3 3 3 2
0 1 0 1 1 1 1 2 1 2 2 3 4 3 1 4 4 5 4 4 4 4 4 3 3 3 3 3 2 2 2 1 2 2 2 3 2 3 3 3 3 3 3 3
1 1 1 2 0 1 3 3 3 3 2 3 4 3 1 2 3 3 4 4 4 4 3 3 3 2 2 2 2 2 2 1 1 1 2 2 2 2 2 2 3 3 3 3
1 1 1 1 2 1 2 3 4 3 2 5 6 4 1 1 2 3 4 4 3 3 3 3 3 2 2 2 2 2 2 1 1 1 1 1 1 2 2 2 2 2 3 3
2 1 3 4 2 2 4 5 6 5 5 7 10 9 6 5 5 5 5 5 4 3 3 3 3 3 3 2 2 2 2 1 0 1 1 1 1 1 1 1 1 2 2 3
1 2 3 5 6 6 7 9 9 11 10 9 10 11 11 8 7 6 6 5 4 4 4 4 4 3 3 3 2 2 2 1 0 1 1 1 0 0 1 1 1 1 1 2
0 2 2 4 4 5 8 11 12 12 12 12 13 14 9 7 6 6 6 5 5 5 5 4 4 4 3 3 2 2 2 2 1 1 0 0 0 0 1 1 0 1 1 1
2 2 2 3 2 4 8 10 12 10 10 10 12 10 4 5 7 7 7 6 6 6 6 5 5 4 4 3 2 2 2 1 1 0 0 0 0 1 1 1 1 1 1 1
3 3 1 2 2 6 3 0 6 10 10 10 10 9 8 8 7 8 7 7 7 7 6 5 5 4 3 2 1 1 1 0 0 0 0 0 0 0 1 1 1 1 1 1
5 4 3 2 4 7 5 3 4 6 8 8 11 11 9 5 6 7 6 7 8 7 6 5 4 3 2 2 1 1 0 0 0 0 0 1 0 0 0 1 1 1 1 1
3 4 4 4 4 5 2 2 2 3 6 4 7 8 6 3 5 5 3 5 6 5 4 3 2 2 2 1 1 1 1 1 1 1 1 1 1 0 1 1 0 0 1 1
4 4 6 6 6 7 2 3 5 5 3 1 4 6 5 6 6 5 3 4 4 3 3 2 2 2 2 1 2 1 1 1 1 0 0 0 1 1 1 0 0 0 0 1
7 6 6 6 7 7 4 7 6 4 3 2 4 5 6 7 7 5 5 4 3 2 2 3 2 2 2 2 2 2 2 1 1 1 0 0 0 0 0 1 1 1 1 1
7 6 5 7 7 2 6 6 4 3 4 5 5 6 6 7 7 6 5 4 4 3 3 3 3 2 2 2 3 3 2 1 1 1 1 0 0 0 0 1 1 1 1 1
5 4 5 6 9 8 7 8 7 6 7 7 7 7 6 7 7 6 5 5 4 4 3 3 3 3 3 2 2 2 2 2 2 2 1 1 1 0 0 1 1 1 1 1
6 6 6 8 9 7 8 9 10 9 8 7 7 7 7 7 7 6 5 5 4 3 3 3 3 3 3 2 2 2 2 2 2 2 1 1 1 1 0 0 1 1 1 2
7 8 7 8 7 6 6 5 7 8 8 8 7 7 7 7 7 6 5 4 4 3 3 3 3 4 3 2 2 2 2 3 3 2 2 1 1 1 1 1 0 1 0 0
Wind_Direction
126 167 191 201 204 213 204 207 217 224 218 207 212 228 243 225 201 199 203 206 208 215 213 170 178 178 172 168 176 180 178 176 172 171 180 188 193 187 187 190 193 193 191 193
151 203 217 204 203 209 210 209 212 218 216 212 212 232 231 210 202 202 207 208 210 220 218 52 179 168 168 180 182 184 184 183 187 193 193 200 195 198 194 189 196 199 197 195
171 217 217 196 196 203 214 207 205 208 223 201 198 230 208 200 202 206 212 216 218 224 236 243 237 198 188 202 205 201 193 189 192 188 178 176 175 184 193 201 203 202 198 196
154 253 209 190 190 201 217 209 207 203 200 202 203 219 217 206 210 207 209 222 234 237 246 252 256 229 221 223 214 211 203 191 189 185 189 189 197 206 214 207 203 198 197 197
131 230 214 198 216 224 226 222 208 203 202 213 201 214 224 201 215 217 219 223 234 246 244 244 250 237 230 223 209 207 202 193 189 189 195 199 209 212 210 200 193 196 201 201
72 350 293 246 233 216 206 175 167 186 200 225 211 213 223 208 219 217 216 223 239 260 272 276 280 269 237 227 209 199 193 193 196 197 201 202 209 211 204 205 199 198 202 204
41 33 11 283 204 172 163 157 173 192 204 222 196 218 234 216 230 230 223 226 251 281 300 308 308 297 278 241 222 210 202 206 207 204 207 209 209 210 206 207 211 206 205 209
13 176 11 348 232 217 202 195 208 212 210 221 204 220 228 236 241 237 228 224 280 326 312 308 306 301 288 255 230 217 213 218 218 217 219 213 208 213 213 210 207 208 210 211
235 246 6 7 345 205 186 199 263 275 221 224 216 239 259 238 242 233 233 238 252 280 296 307 315 312 298 276 249 230 221 217 219 221 224 218 209 208 207 208 207 206 205 199
284 234 312 316 83 59 329 171 175 201 205 221 231 238 232 216 230 240 245 246 253 272 286 303 309 313 309 302 285 251 231 220 217 216 218 218 212 209 205 201 197 196 193 179
333 168 56 152 171 203 154 167 183 196 257 238 232 236 275 233 236 240 251 259 263 270 282 295 307 314 321 318 303 270 248 225 207 205 211 213 210 201 197 194 190 187 186 178
46 165 220 234 228 254 211 202 200 212 223 243 251 260 82 262 267 259 267 272 269 269 282 295 303 313 324 327 311 299 297 270 240 220 211 219 215 193 189 194 192 183 186 185
145 149 179 174 169 175 222 215 213 223 228 228 232 238 153 279 282 282 277 279 275 272 285 295 301 304 309 313 307 306 301 296 287 247 210 206 200 194 197 201 196 183 185 186
166 179 224 232 248 230 241 236 219 215 228 234 240 252 266 275 280 286 287 283 276 275 282 289 294 297 300 305 312 311 295 300 289 241 214 207 209 203 201 205 201 190 191 195
173 213 233 262 265 247 244 245 233 227 234 242 251 256 268 280 281 279 280 278 273 273 276 276 281 288 293 302 314 321 321 311 270 244 235 239 258 191 184 181 191 193 194 209
217 219 235 261 249 245 251 246 236 236 239 245 260 266 270 280 275 274 274 270 267 270 276 278 277 279 280 286 293 304 311 312 289 242 232 23 109 128 154 156 158 171 179 197
186 184 227 253 273 268 253 236 222 225 231 233 244 257 265 269 264 264 265 263 263 269 274 272 268 268 272 273 265 272 289 305 307 285 161 158 156 142 156 155 161 174 183 184
175 173 212 267 253 239 249 128 224 233 244 237 252 268 270 270 276 274 265 262 266 269 268 268 266 265 271 269 263 274 290 292 309 334 9 1 140 140 151 153 161 180 181 176
201 188 197 214 243 268 267 213 209 224 257 240 245 260 268 283 284 270 257 254 262 262 261 260 261 257 249 245 240 220 236 272 259 260 324 321 287 191 196 182 174 182 172 172
175 195 207 206 230 244 266 159 189 212 260 234 226 245 258 252 261 282 292 262 260 261 255 246 240 231 225 236 217 203 216 220 229 256 288 296 279 238 234 233 210 197 174 174
180 195 212 221 238 260 261 155 165 210 275 197 221 238 233 230 260 305 304 281 266 258 250 223 211 216 228 222 203 211 232 251 265 285 290 282 266 260 237 195 191 191 154 130
198 194 204 204 224 248 164 159 199 251 325 267 253 249 248 254 268 282 287 282 270 252 235 211 206 222 224 211 201 208 232 248 218 169 166 204 353 346 188 158 157 173 157 144
214 213 211 210 228 300 177 205 240 286 275 273 270 270 260 260 264 272 277 277 271 251 236 213 205 219 226 220 213 214 232 212 185 171 174 156 37 23 157 169 176 180 173 174
227 221 229 248 258 257 243 251 264 263 262 271 273 271 260 258 263 267 270 270 268 258 237 210 202 215 230 233 230 229 223 199 188 191 192 174 171 160 156 184 200 195 191 195
230 197 222 248 267 275 255 249 258 262 262 265 267 263 258 256 260 261 263 263 259 254 242 217 212 219 231 228 231 231 217 194 190 194 195 193 195 198 196 207 206 223 239 218
217 210 217 243 246 239 262 272 262 254 254 256 257 261 256 246 248 254 257 256 251 244 235 226 224 222 229 223 226 231 216 199 191 194 205 208 206 210 211 210 284 71 243 330
Height
1494 1495 1493 1494 1494 1492 1492 1492 1494 1495 1497 1498 1497 1498 1500 1503 1503 1504 1505 1506 1507 1508 1509 1509 1510 1511 1513 1514 1516 1518 1519 1520 1522 1524 1526 1527 1529 1531 1533 1535 1537 1538 1540 1541
1494 1494 1495 1495 1496 1494 1492 1492 1494 1496 1497 1497 1496 1497 1499 1501 1502 1503 1504 1505 1506 1507 1507 1507 1508 1509 1510 1512 1513 1515 1516 1518 1520 1522 1523 1525 1527 1528 1530 1532 1533 1535 1537 1538
1492 1495 1496 1495 1495 1493 1492 1491 1493 1496 1498 1497 1497 1496 1497 1499 1502 1503 1503 1504 1505 1505 1505 1505 1506 1507 1508 1509 1511 1512 1514 1515 1517 1519 1521 1522 1524 1525 1527 1529 1530 1532 1533 1535
1495 1496 1496 1495 1494 1493 1492 1492 1494 1495 1495 1495 1495 1493 1492 1495 1498 1500 1502 1503 1503 1504 1504 1504 1504 1505 1506 1507 1509 1510 1512 1513 1514 1516 1518 1519 1520 1521 1523 1525 1527 1528 1530 1531
1497 1497 1496 1495 1496 1496 1494 1494 1494 1494 1495 1496 1494 1494 1489 1493 1494 1496 1499 1500 1501 1502 1502 1502 1503 1503 1504 1505 1506 1508 1509 1509 1511 1513 1515 1516 1517 1519 1520 1522 1523 1525 1526 1528
1498 1499 1499 1498 1498 1498 1496 1495 1494 1495 1495 1497 1492 1491 1487 1489 1490 1492 1496 1498 1499 1500 1500 1501 1501 1501 1502 1503 1504 1505 1505 1506 1508 1510 1511 1512 1513 1515 1517 1518 1519 1521 1523 1524
1497 1499 1501 1500 1498 1497 1496 1495 1494 1493 1493 1491 1493 1492 1486 1487 1491 1492 1494 1496 1497 1498 1498 1498 1499 1498 1498 1500 1501 1502 1502 1503 1505 1506 1508 1509 1510 1512 1513 1515 1516 1517 1518 1520
1497 1497 1501 1501 1500 1500 1498 1496 1494 1491 1487 1488 1494 1490 1486 1490 1492 1493 1494 1495 1496 1496 1496 1497 1496 1496 1496 1497 1497 1498 1499 1500 1501 1502 1504 1506 1507 1508 1510 1511 1512 1513 1515 1516
1499 1499 1502 1503 1503 1501 1499 1497 1500 1497 1495 1493 1490 1488 1488 1490 1491 1492 1493 1493 1494 1494 1494 1494 1494 1494 1493 1493 1494 1495 1496 1496 1498 1499 1500 1502 1503 1504 1506 1507 1509 1510 1511 1512
1504 1503 1502 1503 1503 1503 1502 1501 1500 1498 1492 1487 1486 1484 1481 1486 1488 1490 1491 1491 1492 1492 1492 1492 1492 1491 1490 1490 1491 1492 1493 1493 1494 1495 1496 1497 1499 1500 1502 1504 1505 1506 1507 1508
1505 1505 1503 1503 1504 1503 1504 1504 1502 1499 1496 1487 1483 1481 1482 1484 1486 1488 1489 1490 1490 1491 1490 1490 1490 1489 1488 1488 1489 1490 1490 1489 1490 1491 1492 1494 1495 1496 1498 1499 1500 1502 1503 1504
1507 1505 1503 1504 1506 1507 1505 1504 1503 1499 1500 1495 1485 1485 1487 1487 1488 1489 1489 1489 1489 1489 1489 1488 1488 1487 1486 1486 1487 1487 1486 1487 1487 1488 1489 1490 1491 1492 1494 1495 1496 1498 1499 1500
1507 1507 1500 1497 1505 1508 1506 1505 1506 1505 1501 1494 1486 1485 1488 1488 1489 1489 1489 1488 1488 1487 1487 1486 1486 1485 1485 1485 1485 1485 1484 1484 1485 1485 1486 1487 1488 1489 1490 1491 1492 1493 1495 1495
1507 1508 1503 1495 1494 1501 1504 1505 1505 1503 1496 1491 1485 1482 1485 1486 1487 1488 1488 1487 1487 1486 1485 1484 1484 1484 1483 1483 1482 1482 1482 1482 1482 1483 1484 1484 1485 1486 1487 1488 1489 1490 1491 1492
1507 1507 1508 1505 1503 1503 1503 1502 1502 1501 1495 1489 1482 1484 1481 1484 1486 1487 1486 1486 1485 1484 1484 1483 1482 1482 1481 1480 1480 1480 1479 1479 1480 1480 1481 1481 1482 1482 1484 1485 1486 1486 1487 1488
1508 1508 1508 1504 1502 1502 1501 1497 1497 1497 1495 1491 1488 1484 1483 1485 1485 1485 1484 1484 1483 1482 1481 1481 1480 1479 1479 1478 1477 1477 1477 1477 1478 1478 1478 1478 1479 1480 1481 1481 1482 1483 1484 1485
1508 1509 1505 1495 1502 1501 1491 1488 1490 1490 1489 1487 1483 1479 1483 1483 1483 1482 1482 1481 1480 1480 1479 1478 1477 1477 1476 1476 1475 1475 1475 1475 1475 1476 1476 1476 1476 1477 1477 1478 1479 1480 1480 1481
1509 1509 1506 1500 1499 1493 1480 1488 1487 1486 1484 1485 1483 1481 1481 1481 1481 1480 1480 1479 1478 1477 1476 1476 1475 1475 1474 1474 1473 1473 1473 1473 1473 1473 1473 1474 1474 1474 1474 1475 1476 1476 1477 1478
1507 1507 1504 1501 1493 1483 1481 1486 1487 1485 1481 1480 1481 1479 1479 1480 1479 1477 1476 1475 1475 1475 1474 1474 1473 1473 1472 1472 1471 1471 1471 1471 1471 1471 1471 1472 1472 1472 1472 1473 1473 1474 1474 1475
1507 1507 1504 1502 1492 1481 1475 1484 1485 1486 1478 1476 1477 1477 1477 1478 1475 1472 1473 1472 1472 1472 1471 1471 1471 1470 1470 1470 1469 1469 1469 1469 1469 1469 1470 1470 1470 1470 1470 1470 1471 1471 1472 1473
1505 1504 1502 1497 1491 1478 1479 1483 1485 1481 1472 1474 1474 1474 1475 1475 1473 1472 1470 1469 1469 1469 1468 1468 1468 1468 1468 1468 1468 1468 1468 1468 1468 1468 1468 1468 1468 1468 1468 1468 1469 1469 1470 1470
1494 1493 1496 1493 1490 1479 1478 1480 1479 1473 1473 1472 1472 1472 1472 1471 1470 1469 1468 1467 1466 1466 1466 1466 1466 1466 1466 1466 1466 1466 1466 1466 1466 1466 1466 1466 1466 1466 1466 1466 1467 1467 1468 1468
1488 1485 1482 1482 1476 1473 1474 1472 1472 1472 1471 1471 1470 1470 1469 1468 1467 1466 1465 1464 1464 1464 1464 1463 1463 1464 1464 1464 1464 1464 1464 1464 1464 1464 1464 1464 1464 1464 1464 1465 1465 1465 1466 1466
1484 1485 1483 1480 1472 1471 1471 1470 1469 1469 1468 1468 1467 1467 1466 1465 1464 1463 1462 1461 1461 1461 1461 1461 1461 1461 1461 1462 1462 1462 1462 1462 1462 1462 1462 1462 1462 1462 1462 1463 1463 1463 1463 1464
1477 1480 1477 1473 1469 1468 1466 1465 1465 1465 1464 1464 1464 1463 1462 1461 1460 1460 1459 1458 1458 1458 1458 1458 1458 1458 1459 1459 1459 1460 1460 1460 1460 1460 1460 1460 1460 1460 1460 1461 1461 1461 1462 1462
1470 1471 1470 1463 1462 1463 1461 1461 1461 1461 1460 1460 1459 1458 1458 1457 1457 1456 1456 1456 1456 1456 1456 1456 1456 1456 1456 1456 1457 1457 1457 1457 1457 1457 1458 1458 1458 1458 1458 1458 1458 1458 1459 1459